FW9456 Weather Reports


time (UTC)temp
C
wind
direction
speed
KPH
gust
KPH
rain 1hr
cm
rain 24hr
cm
rain mn
cm
humidity
%
barometer
mb
20260506084536 11 0 0.0 0.0 0.00 0.00 0.00 88 1019.5
20260506083036 11 0 0.0 0.0 0.00 0.00 0.00 88 1019.4
20260506081537 12 0 0.0 0.0 0.00 0.00 0.00 88 1019.5
20260506073036 12 0 0.0 0.0 0.00 0.00 0.00 87 1019.3
20260506071544 12 0 0.0 0.0 0.00 0.00 0.00 86 1019.3
20260506061537 13 0 0.0 0.0 0.00 0.00 0.00 85 1019.0
20260506044550 13 0 0.0 0.0 0.00 0.00 0.00 84 1018.5
20260506043035 13 0 0.0 0.0 0.00 0.00 0.00 84 1018.4
20260506041547 13 0 0.0 0.0 0.00 0.00 0.00 83 1018.3
20260506040042 13 0 0.0 0.0 0.00 0.00 0.00 83 1018.2
20260506034535 13 0 0.0 0.0 0.00 0.00 0.00 83 1018.0
20260506033034 13 0 0.0 0.0 0.00 0.00 0.00 83 1017.8
20260506031534 13 0 0.0 0.0 0.00 0.00 0.00 82 1017.6
20260506030046 13 0 0.0 3.2 0.00 0.00 0.00 82 1017.4
20260506024538 14 5 0.0 3.2 0.00 0.00 0.00 81 1017.4
20260506023037 14 0 0.0 8.0 0.00 0.00 0.00 80 1017.5
20260506021534 14 294 1.6 9.7 0.00 0.00 0.00 79 1017.3
20260506020035 14 0 0.0 8.0 0.00 0.00 0.00 79 1017.2
20260506014536 14 0 1.6 6.4 0.00 0.00 0.00 77 1017.2
20260506013041 15 5 0.0 8.0 0.00 0.00 0.00 77 1017.2
20260506011535 15 0 1.6 9.7 0.00 0.00 0.00 75 1017.2
20260506010035 15 0 3.2 12.9 0.00 0.00 0.00 75 1017.1
20260506004604 16 252 3.2 11.3 0.00 0.00 0.00 76 1017.1
20260506003035 16 238 3.2 11.3 0.00 0.00 0.00 77 1017.0
20260506001536 16 225 3.2 11.3 0.00 0.00 0.00 75 1017.0
20260506000034 16 255 4.8 11.3 0.00 0.00 0.00 74 1016.9
20260505234604 16 202 4.8 11.3 0.00 0.00 0.00 74 1016.7
20260505233035 15 221 4.8 12.9 0.00 0.00 0.00 76 1016.8
20260505231536 16 238 4.8 12.9 0.00 0.00 0.00 74 1016.9
20260505230035 16 232 4.8 12.9 0.00 0.00 0.00 75 1016.9
20260505224536 16 228 3.2 11.3 0.00 0.00 0.00 77 1017.1
20260505223046 15 234 4.8 12.9 0.00 0.00 0.00 79 1017.3
20260505221544 15 219 3.2 8.0 0.00 0.00 0.00 79 1017.3
20260505220035 15 202 4.8 11.3 0.00 0.00 0.00 79 1017.1
20260505214540 14 215 3.2 8.0 0.00 0.00 0.00 81 1017.4
20260505213037 15 260 6.4 14.5 0.00 0.00 0.00 79 1017.6
20260505211536 15 250 1.6 9.7 0.00 0.00 0.00 79 1017.5
20260505210035 15 231 3.2 8.0 0.00 0.00 0.00 79 1017.4
20260505204535 15 212 1.6 6.4 0.00 0.00 0.00 79 1017.4
20260505203033 14 215 3.2 9.7 0.00 0.00 0.00 78 1017.5
20260505201533 15 237 4.8 12.9 0.00 0.00 0.00 77 1017.6
20260505200037 15 240 3.2 9.7 0.00 0.00 0.00 79 1017.6
20260505194538 15 247 4.8 12.9 0.00 0.00 0.00 78 1017.6
20260505193035 15 247 3.2 11.3 0.00 0.00 0.00 78 1017.6
20260505191535 15 230 3.2 11.3 0.00 0.00 0.00 80 1017.8
20260505190047 14 229 4.8 11.3 0.00 0.00 0.00 80 1017.8
20260505184536 14 225 1.6 8.0 0.00 0.00 0.00 81 1017.7
20260505183044 14 219 3.2 11.3 0.00 0.00 0.00 80 1017.7
20260505181538 14 234 3.2 8.0 0.00 0.00 0.00 80 1017.5
20260505180036 14 248 3.2 9.7 0.00 0.00 0.00 81 1017.3
20260505174534 13 219 1.6 6.4 0.00 0.00 0.00 80 1017.2
20260505173043 13 0 0.0 6.4 0.00 0.00 0.00 81 1017.2
20260505171536 13 0 0.0 3.2 0.00 0.00 0.00 81 1017.2
20260505170037 13 320 0.0 4.8 0.00 0.00 0.00 81 1017.2
20260505164535 13 0 0.0 4.8 0.00 0.00 0.00 82 1016.9
20260505163033 13 0 0.0 6.4 0.00 0.00 0.00 82 1016.7
20260505161530 13 0 0.0 6.4 0.00 0.00 0.00 82 1016.7
20260505153040 12 0 0.0 3.2 0.00 0.00 0.00 81 1016.6
20260505151536 12 0 0.0 6.4 0.00 0.00 0.00 82 1016.5
20260505124533 11 0 0.0 0.0 0.00 0.00 0.00 84 1015.6
20260505123058 11 0 0.0 0.0 0.00 0.00 0.00 84 1015.6
20260505121541 11 0 0.0 0.0 0.00 0.00 0.00 84 1015.6
20260505120046 11 0 0.0 1.6 0.00 0.00 0.00 84 1015.4
20260505114536 11 0 0.0 1.6 0.00 0.00 0.00 84 1015.4
20260505113034 11 0 0.0 1.6 0.00 0.00 0.00 84 1015.4
20260505111538 11 80 0.0 4.8 0.00 0.00 0.00 84 1015.5
20260505101541 11 0 0.0 3.2 0.00 0.00 0.00 85 1015.6
20260505100040 11 0 0.0 8.0 0.00 0.00 0.00 85 1015.7
20260505094537 11 283 1.6 9.7 0.00 0.03 0.00 86 1015.8
20260505093036 11 103 0.0 6.4 0.00 0.03 0.00 86 1015.9
20260505091538 11 0 0.0 6.4 0.00 0.03 0.00 86 1015.9
20260505090036 11 0 0.0 0.0 0.00 0.03 0.00 86 1016.0